Year,Month,Day,Hour,Minute,Value (Times are PST for temperature in C)
2011,04,22,00,00,7.10
2011,04,22,00,01,7.10
2011,04,22,00,02,7.00
2011,04,22,00,03,7.00
2011,04,22,00,04,7.00
2011,04,22,00,05,7.00
2011,04,22,00,06,7.00
2011,04,22,00,07,7.00
2011,04,22,00,08,7.00
2011,04,22,00,09,7.00
2011,04,22,00,10,7.00
2011,04,22,00,11,7.00
2011,04,22,00,12,7.00
2011,04,22,00,13,7.10
2011,04,22,00,14,7.10
2011,04,22,00,15,7.10
2011,04,22,00,16,7.10
2011,04,22,00,17,7.10
2011,04,22,00,18,7.10
2011,04,22,00,19,7.10
2011,04,22,00,20,7.10
2011,04,22,00,21,7.10
2011,04,22,00,22,7.10
2011,04,22,00,23,7.10
2011,04,22,00,24,7.10
2011,04,22,00,25,7.10
2011,04,22,00,26,7.10
2011,04,22,00,27,7.10
2011,04,22,00,28,7.20
2011,04,22,00,29,7.20
2011,04,22,00,30,7.20
2011,04,22,00,31,7.20
2011,04,22,00,32,7.20
2011,04,22,00,33,7.20
2011,04,22,00,34,7.20
2011,04,22,00,35,7.20
2011,04,22,00,36,7.20
2011,04,22,00,37,7.20
2011,04,22,00,38,7.20
2011,04,22,00,39,7.20
2011,04,22,00,40,7.20
2011,04,22,00,41,7.20
2011,04,22,00,42,7.20
2011,04,22,00,43,7.20
2011,04,22,00,44,7.20
2011,04,22,00,45,7.20
2011,04,22,00,46,7.20
2011,04,22,00,47,7.20
2011,04,22,00,48,7.20
2011,04,22,00,49,7.20
2011,04,22,00,50,7.20
2011,04,22,00,51,7.20
2011,04,22,00,52,7.20
2011,04,22,00,53,7.20
2011,04,22,00,54,7.20
2011,04,22,00,55,7.20
2011,04,22,00,56,7.20
2011,04,22,00,57,7.20
2011,04,22,00,58,7.20
2011,04,22,00,59,7.20
2011,04,22,01,00,7.20
2011,04,22,01,01,7.20
2011,04,22,01,02,7.20
2011,04,22,01,03,7.20
2011,04,22,01,04,7.20
2011,04,22,01,05,7.20
2011,04,22,01,06,7.20
2011,04,22,01,07,7.20
2011,04,22,01,08,7.20
2011,04,22,01,09,7.20
2011,04,22,01,10,7.20
2011,04,22,01,11,7.20
2011,04,22,01,12,7.20
2011,04,22,01,13,7.20
2011,04,22,01,14,7.20
2011,04,22,01,15,7.20
2011,04,22,01,16,7.20
2011,04,22,01,17,7.20
2011,04,22,01,18,7.20
2011,04,22,01,19,7.20
2011,04,22,01,20,7.20
2011,04,22,01,21,7.20
2011,04,22,01,22,7.20
2011,04,22,01,23,7.20
2011,04,22,01,24,7.20
2011,04,22,01,25,7.20
2011,04,22,01,26,7.20
2011,04,22,01,27,7.20
2011,04,22,01,28,7.20
2011,04,22,01,29,7.10
2011,04,22,01,30,7.10
2011,04,22,01,31,7.10
2011,04,22,01,32,7.10
2011,04,22,01,33,7.10
2011,04,22,01,34,7.10
2011,04,22,01,35,7.10
2011,04,22,01,36,7.10
2011,04,22,01,37,7.10
2011,04,22,01,38,7.00
2011,04,22,01,39,7.00
2011,04,22,01,40,7.00
2011,04,22,01,41,7.00
2011,04,22,01,42,7.00
2011,04,22,01,43,7.00
2011,04,22,01,44,7.00
2011,04,22,01,45,7.00
2011,04,22,01,46,7.00
2011,04,22,01,47,7.00
2011,04,22,01,48,6.90
2011,04,22,01,49,6.90
2011,04,22,01,50,6.90
2011,04,22,01,51,6.80
2011,04,22,01,52,6.80
2011,04,22,01,53,6.80
2011,04,22,01,54,6.80
2011,04,22,01,55,6.80
2011,04,22,01,56,6.70
2011,04,22,01,57,6.60
2011,04,22,01,58,6.50
2011,04,22,01,59,6.40
2011,04,22,02,00,6.30
2011,04,22,02,01,6.20
2011,04,22,02,02,6.10
2011,04,22,02,03,6.00
2011,04,22,02,04,5.90
2011,04,22,02,05,5.80
2011,04,22,02,06,5.70
2011,04,22,02,07,5.70
2011,04,22,02,08,5.60
2011,04,22,02,09,5.60
2011,04,22,02,10,5.60
2011,04,22,02,11,5.50
2011,04,22,02,12,5.50
2011,04,22,02,13,5.40
2011,04,22,02,14,5.40
2011,04,22,02,15,5.40
2011,04,22,02,16,5.30
2011,04,22,02,17,5.30
2011,04,22,02,18,5.30
2011,04,22,02,19,5.20
2011,04,22,02,20,5.20
2011,04,22,02,21,5.10
2011,04,22,02,22,5.10
2011,04,22,02,23,5.00
2011,04,22,02,24,5.00
2011,04,22,02,25,4.90
2011,04,22,02,26,4.90
2011,04,22,02,27,4.80
2011,04,22,02,28,4.80
2011,04,22,02,29,4.70
2011,04,22,02,30,4.70
2011,04,22,02,31,4.70
2011,04,22,02,32,4.60
2011,04,22,02,33,4.60
2011,04,22,02,34,4.50
2011,04,22,02,35,4.40
2011,04,22,02,36,4.40
2011,04,22,02,37,4.30
2011,04,22,02,38,4.30
2011,04,22,02,39,4.30
2011,04,22,02,40,4.20
2011,04,22,02,41,4.20
2011,04,22,02,42,4.20
2011,04,22,02,43,4.10
2011,04,22,02,44,4.10
2011,04,22,02,45,4.00
2011,04,22,02,46,4.00
2011,04,22,02,47,4.00
2011,04,22,02,48,3.90
2011,04,22,02,49,3.90
2011,04,22,02,50,3.90
2011,04,22,02,51,3.80
2011,04,22,02,52,3.80
2011,04,22,02,53,3.80
2011,04,22,02,54,3.80
2011,04,22,02,55,3.80
2011,04,22,02,56,3.70
2011,04,22,02,57,3.70
2011,04,22,02,58,3.70
2011,04,22,02,59,3.70
2011,04,22,03,00,3.60
2011,04,22,03,01,3.60
2011,04,22,03,02,3.60
2011,04,22,03,03,3.60
2011,04,22,03,04,3.50
2011,04,22,03,05,3.50
2011,04,22,03,06,3.50
2011,04,22,03,07,3.40
2011,04,22,03,08,3.40
2011,04,22,03,09,3.40
2011,04,22,03,10,3.40
2011,04,22,03,11,3.40
2011,04,22,03,12,3.40
2011,04,22,03,13,3.40
2011,04,22,03,14,3.40
2011,04,22,03,15,3.40
2011,04,22,03,16,3.40
2011,04,22,03,17,3.40
2011,04,22,03,18,3.40
2011,04,22,03,19,3.40
2011,04,22,03,20,3.40
2011,04,22,03,21,3.30
2011,04,22,03,22,3.30
2011,04,22,03,23,3.30
2011,04,22,03,24,3.30
2011,04,22,03,25,3.30
2011,04,22,03,26,3.30
2011,04,22,03,27,3.30
2011,04,22,03,28,3.30
2011,04,22,03,29,3.30
2011,04,22,03,30,3.30
2011,04,22,03,31,3.30
2011,04,22,03,32,3.30
2011,04,22,03,33,3.30
2011,04,22,03,34,3.30
2011,04,22,03,35,3.30
2011,04,22,03,36,3.30
2011,04,22,03,37,3.30
2011,04,22,03,38,3.30
2011,04,22,03,39,3.30
2011,04,22,03,40,3.30
2011,04,22,03,41,3.30
2011,04,22,03,42,3.30
2011,04,22,03,43,3.30
2011,04,22,03,44,3.20
2011,04,22,03,45,3.20
2011,04,22,03,46,3.20
2011,04,22,03,47,3.20
2011,04,22,03,48,3.20
2011,04,22,03,49,3.20
2011,04,22,03,50,3.20
2011,04,22,03,51,3.20
2011,04,22,03,52,3.20
2011,04,22,03,53,3.10
2011,04,22,03,54,3.10
2011,04,22,03,55,3.10
2011,04,22,03,56,3.10
2011,04,22,03,57,3.10
2011,04,22,03,58,3.10
2011,04,22,03,59,3.10
2011,04,22,04,00,3.10
2011,04,22,04,01,3.10
2011,04,22,04,02,3.10
2011,04,22,04,03,3.10
2011,04,22,04,04,3.00
2011,04,22,04,05,3.00
2011,04,22,04,06,3.00
2011,04,22,04,07,3.00
2011,04,22,04,08,3.00
2011,04,22,04,09,3.00
2011,04,22,04,10,3.00
2011,04,22,04,11,3.00
2011,04,22,04,12,3.00
2011,04,22,04,13,2.90
2011,04,22,04,14,2.90
2011,04,22,04,15,2.90
2011,04,22,04,16,3.00
2011,04,22,04,17,2.90
2011,04,22,04,18,3.00
2011,04,22,04,19,3.00
2011,04,22,04,20,3.00
2011,04,22,04,21,3.00
2011,04,22,04,22,3.00
2011,04,22,04,23,3.00
2011,04,22,04,24,3.00
2011,04,22,04,25,3.00
2011,04,22,04,26,3.00
2011,04,22,04,27,3.00
2011,04,22,04,28,3.00
2011,04,22,04,29,3.00
2011,04,22,04,30,3.00
2011,04,22,04,31,3.00
2011,04,22,04,32,3.00
2011,04,22,04,33,2.90
2011,04,22,04,34,2.90
2011,04,22,04,35,2.90
2011,04,22,04,36,2.90
2011,04,22,04,37,2.90
2011,04,22,04,38,2.90
2011,04,22,04,39,2.90
2011,04,22,04,40,2.90
2011,04,22,04,41,2.90
2011,04,22,04,42,2.90
2011,04,22,04,43,2.90
2011,04,22,04,44,2.90
2011,04,22,04,45,2.90
2011,04,22,04,46,2.90
2011,04,22,04,47,2.90
2011,04,22,04,48,2.90
2011,04,22,04,49,2.90
2011,04,22,04,50,2.90
2011,04,22,04,51,2.90
2011,04,22,04,52,2.90
2011,04,22,04,53,2.90
2011,04,22,04,54,2.80
2011,04,22,04,55,2.80
2011,04,22,04,56,2.80
2011,04,22,04,57,2.80
2011,04,22,04,58,2.80
2011,04,22,04,59,2.80
2011,04,22,05,00,2.80
2011,04,22,05,01,2.80
2011,04,22,05,02,2.80
2011,04,22,05,03,2.80
2011,04,22,05,04,2.80
2011,04,22,05,05,2.80
2011,04,22,05,06,2.70
2011,04,22,05,07,2.70
2011,04,22,05,08,2.70
2011,04,22,05,09,2.70
2011,04,22,05,10,2.70
2011,04,22,05,11,2.70
2011,04,22,05,12,2.70
2011,04,22,05,13,2.70
2011,04,22,05,14,2.70
2011,04,22,05,15,2.70
2011,04,22,05,16,2.70
2011,04,22,05,17,2.60
2011,04,22,05,18,2.60
2011,04,22,05,19,2.60
2011,04,22,05,20,2.60
2011,04,22,05,21,2.60
2011,04,22,05,22,2.60
2011,04,22,05,23,2.60
2011,04,22,05,24,2.60
2011,04,22,05,25,2.60
2011,04,22,05,26,2.60
2011,04,22,05,27,2.60
2011,04,22,05,28,2.60
2011,04,22,05,29,2.60
2011,04,22,05,30,2.60
2011,04,22,05,31,2.60
2011,04,22,05,32,2.60
2011,04,22,05,33,2.60
2011,04,22,05,34,2.60
2011,04,22,05,35,2.60
2011,04,22,05,36,2.60
2011,04,22,05,37,2.60
2011,04,22,05,38,2.60
2011,04,22,05,39,2.60
2011,04,22,05,40,2.60
2011,04,22,05,41,2.60
2011,04,22,05,42,2.60
2011,04,22,05,43,2.60
2011,04,22,05,44,2.60
2011,04,22,05,45,2.60
2011,04,22,05,46,2.60
2011,04,22,05,47,2.60
2011,04,22,05,48,2.60
2011,04,22,05,49,2.60
2011,04,22,05,50,2.60
2011,04,22,05,51,2.60
2011,04,22,05,52,2.60
2011,04,22,05,53,2.60
2011,04,22,05,54,2.60
2011,04,22,05,55,2.60
2011,04,22,05,56,2.60
2011,04,22,05,57,2.60
2011,04,22,05,58,2.60
2011,04,22,05,59,2.60
2011,04,22,06,00,2.60
2011,04,22,06,01,2.60
2011,04,22,06,02,2.60
2011,04,22,06,03,2.60
2011,04,22,06,04,2.60
2011,04,22,06,05,2.60
2011,04,22,06,06,2.60
2011,04,22,06,07,2.60
2011,04,22,06,08,2.60
2011,04,22,06,09,2.60
2011,04,22,06,10,2.60
2011,04,22,06,11,2.50
2011,04,22,06,12,2.50
2011,04,22,06,13,2.50
2011,04,22,06,14,2.50
2011,04,22,06,15,2.50
2011,04,22,06,16,2.50
2011,04,22,06,17,2.50
2011,04,22,06,18,2.50
2011,04,22,06,19,2.50
2011,04,22,06,20,2.50
2011,04,22,06,21,2.50
2011,04,22,06,22,2.60
2011,04,22,06,23,2.50
2011,04,22,06,24,2.60
2011,04,22,06,25,2.60
2011,04,22,06,26,2.60
2011,04,22,06,27,2.60
2011,04,22,06,28,2.60
2011,04,22,06,29,2.60
2011,04,22,06,30,2.60
2011,04,22,06,31,2.60
2011,04,22,06,32,2.60
2011,04,22,06,33,2.60
2011,04,22,06,34,2.60
2011,04,22,06,35,2.60
2011,04,22,06,36,2.60
2011,04,22,06,37,2.60
2011,04,22,06,38,2.60
2011,04,22,06,39,2.60
2011,04,22,06,40,2.50
2011,04,22,06,41,2.50
2011,04,22,06,42,2.50
2011,04,22,06,43,2.50
2011,04,22,06,44,2.50
2011,04,22,06,45,2.50
2011,04,22,06,46,2.40
2011,04,22,06,47,2.50
2011,04,22,06,48,2.40
2011,04,22,06,49,2.50
2011,04,22,06,50,2.50
2011,04,22,06,51,2.40
2011,04,22,06,52,2.50
2011,04,22,06,53,2.50
2011,04,22,06,54,2.60
2011,04,22,06,55,2.60
2011,04,22,06,56,2.70
2011,04,22,06,57,2.80
2011,04,22,06,58,2.90
2011,04,22,06,59,3.10
2011,04,22,07,00,3.20
2011,04,22,07,01,3.30
2011,04,22,07,02,3.40
2011,04,22,07,03,3.40
2011,04,22,07,04,3.50
2011,04,22,07,05,3.50
2011,04,22,07,06,3.50
2011,04,22,07,07,3.50
2011,04,22,07,08,3.50
2011,04,22,07,09,3.50
2011,04,22,07,10,3.60
2011,04,22,07,11,3.60
2011,04,22,07,12,3.60
2011,04,22,07,13,3.70
2011,04,22,07,14,3.70
2011,04,22,07,15,3.90
2011,04,22,07,16,4.00
2011,04,22,07,17,4.10
2011,04,22,07,18,4.20
2011,04,22,07,19,4.30
2011,04,22,07,20,4.40
2011,04,22,07,21,4.50
2011,04,22,07,22,4.60
2011,04,22,07,23,4.70
2011,04,22,07,24,4.80
2011,04,22,07,25,5.00
2011,04,22,07,26,5.10
2011,04,22,07,27,5.30
2011,04,22,07,28,5.40
2011,04,22,07,29,5.60
2011,04,22,07,30,5.70
2011,04,22,07,31,5.80
2011,04,22,07,32,5.90
2011,04,22,07,33,6.00
2011,04,22,07,34,6.10
2011,04,22,07,35,6.20
2011,04,22,07,36,6.20
2011,04,22,07,37,6.30
2011,04,22,07,38,6.30
2011,04,22,07,39,6.30
2011,04,22,07,40,6.40
2011,04,22,07,41,6.40
2011,04,22,07,42,6.40
2011,04,22,07,43,6.50
2011,04,22,07,44,6.50
2011,04,22,07,45,6.60
2011,04,22,07,46,6.60
2011,04,22,07,47,6.60
2011,04,22,07,48,6.60
2011,04,22,07,49,6.70
2011,04,22,07,50,6.70
2011,04,22,07,51,6.80
2011,04,22,07,52,6.80
2011,04,22,07,53,6.90
2011,04,22,07,54,6.90
2011,04,22,07,55,7.00
2011,04,22,07,56,7.00
2011,04,22,07,57,7.10
2011,04,22,07,58,7.20
2011,04,22,07,59,7.20
2011,04,22,08,00,7.30
2011,04,22,08,01,7.40
2011,04,22,08,02,7.50
2011,04,22,08,03,7.50
2011,04,22,08,04,7.60
2011,04,22,08,05,7.70
2011,04,22,08,06,7.80
2011,04,22,08,07,7.90
2011,04,22,08,08,8.00
2011,04,22,08,09,8.00
2011,04,22,08,10,8.10
2011,04,22,08,11,8.10
2011,04,22,08,12,8.20
2011,04,22,08,13,8.10
2011,04,22,08,14,8.00
2011,04,22,08,15,8.00
2011,04,22,08,16,8.00
2011,04,22,08,17,8.00
2011,04,22,08,18,8.10
2011,04,22,08,19,8.00
2011,04,22,08,20,8.00
2011,04,22,08,21,7.90
2011,04,22,08,22,8.00
2011,04,22,08,23,8.10
2011,04,22,08,24,8.10
2011,04,22,08,25,8.20
2011,04,22,08,26,8.20
2011,04,22,08,27,8.20
2011,04,22,08,28,8.30
2011,04,22,08,29,8.30
2011,04,22,08,30,8.30
2011,04,22,08,31,8.30
2011,04,22,08,32,8.30
2011,04,22,08,33,8.30
2011,04,22,08,34,8.30
2011,04,22,08,35,8.40
2011,04,22,08,36,8.40
2011,04,22,08,37,8.40
2011,04,22,08,38,8.40
2011,04,22,08,39,8.30
2011,04,22,08,40,8.30
2011,04,22,08,41,8.20
2011,04,22,08,42,8.20
2011,04,22,08,43,8.20
2011,04,22,08,44,8.30
2011,04,22,08,45,8.30
2011,04,22,08,46,8.40
2011,04,22,08,47,8.40
2011,04,22,08,48,8.40
2011,04,22,08,49,8.40
2011,04,22,08,50,8.30
2011,04,22,08,51,8.30
2011,04,22,08,52,8.30
2011,04,22,08,53,8.20
2011,04,22,08,54,8.20
2011,04,22,08,55,8.20
2011,04,22,08,56,8.30
2011,04,22,08,57,8.50
2011,04,22,08,58,8.50
2011,04,22,08,59,8.60
2011,04,22,09,00,8.70
2011,04,22,09,01,8.80
2011,04,22,09,02,8.80
2011,04,22,09,03,8.90
2011,04,22,09,04,9.00
2011,04,22,09,05,9.10
2011,04,22,09,06,9.00
2011,04,22,09,07,9.00
2011,04,22,09,08,9.00
2011,04,22,09,09,9.00
2011,04,22,09,10,8.90
2011,04,22,09,11,8.90
2011,04,22,09,12,8.90
2011,04,22,09,13,8.90
2011,04,22,09,14,8.90
2011,04,22,09,15,8.80
2011,04,22,09,16,8.80
2011,04,22,09,17,8.70
2011,04,22,09,18,8.70
2011,04,22,09,19,8.70
2011,04,22,09,20,8.60
2011,04,22,09,21,8.60
2011,04,22,09,22,8.60
2011,04,22,09,23,8.50
2011,04,22,09,24,8.50
2011,04,22,09,25,8.40
2011,04,22,09,26,8.40
2011,04,22,09,27,8.40
2011,04,22,09,28,8.40
2011,04,22,09,29,8.40
2011,04,22,09,30,8.40
2011,04,22,09,31,8.40
2011,04,22,09,32,8.40
2011,04,22,09,33,8.40
2011,04,22,09,34,8.40
2011,04,22,09,35,8.40
2011,04,22,09,36,8.50
2011,04,22,09,37,8.50
2011,04,22,09,38,8.50
2011,04,22,09,39,8.40
2011,04,22,09,40,8.40
2011,04,22,09,41,8.40
2011,04,22,09,42,8.40
2011,04,22,09,43,8.40
2011,04,22,09,44,8.40
2011,04,22,09,45,8.40
2011,04,22,09,46,8.40
2011,04,22,09,47,8.40
2011,04,22,09,48,8.40
2011,04,22,09,49,8.30
2011,04,22,09,50,8.30
2011,04,22,09,51,8.20
2011,04,22,09,52,8.20
2011,04,22,09,53,8.20
2011,04,22,09,54,8.10
2011,04,22,09,55,8.10
2011,04,22,09,56,8.00
2011,04,22,09,57,7.90
2011,04,22,09,58,7.90
2011,04,22,09,59,7.90
2011,04,22,10,00,7.90
2011,04,22,10,01,7.90
2011,04,22,10,02,7.90
2011,04,22,10,03,7.90
2011,04,22,10,04,7.90
2011,04,22,10,05,7.90
2011,04,22,10,06,7.90
2011,04,22,10,07,7.90
2011,04,22,10,08,7.90
2011,04,22,10,09,7.90
2011,04,22,10,10,7.80
2011,04,22,10,11,7.80
2011,04,22,10,12,7.80
2011,04,22,10,13,7.80
2011,04,22,10,14,7.90
2011,04,22,10,15,7.90
2011,04,22,10,16,8.00
2011,04,22,10,17,8.00
2011,04,22,10,18,8.10
2011,04,22,10,19,8.10
2011,04,22,10,20,8.20
2011,04,22,10,21,8.30
2011,04,22,10,22,8.30
2011,04,22,10,23,8.40
2011,04,22,10,24,8.40
2011,04,22,10,25,8.40
2011,04,22,10,26,8.40
2011,04,22,10,27,8.40
2011,04,22,10,28,8.40
2011,04,22,10,29,8.40
2011,04,22,10,30,8.40
2011,04,22,10,31,8.50
2011,04,22,10,32,8.50
2011,04,22,10,33,8.50
2011,04,22,10,34,8.40
2011,04,22,10,35,8.40
2011,04,22,10,36,8.40
2011,04,22,10,37,8.40
2011,04,22,10,38,8.30
2011,04,22,10,39,8.30
2011,04,22,10,40,8.30
2011,04,22,10,41,8.30
2011,04,22,10,42,8.30
2011,04,22,10,43,8.30
2011,04,22,10,44,8.30
2011,04,22,10,45,8.30
2011,04,22,10,46,8.30
2011,04,22,10,47,8.30
2011,04,22,10,48,8.40
2011,04,22,10,49,8.40
2011,04,22,10,50,8.40
2011,04,22,10,51,8.40
2011,04,22,10,52,8.40
2011,04,22,10,53,8.50
2011,04,22,10,54,8.60
2011,04,22,10,55,8.70
2011,04,22,10,56,8.80
2011,04,22,10,57,8.80
2011,04,22,10,58,8.80
2011,04,22,10,59,8.80
2011,04,22,11,00,8.80
2011,04,22,11,01,8.80
2011,04,22,11,02,8.80
2011,04,22,11,03,8.80
2011,04,22,11,04,8.80
2011,04,22,11,05,8.80
2011,04,22,11,06,8.80
2011,04,22,11,07,8.90
2011,04,22,11,08,9.00
2011,04,22,11,09,9.00
2011,04,22,11,10,9.00
2011,04,22,11,11,9.10
2011,04,22,11,12,9.10
2011,04,22,11,13,9.20
2011,04,22,11,14,9.20
2011,04,22,11,15,9.20
2011,04,22,11,16,9.20
2011,04,22,11,17,9.20
2011,04,22,11,18,9.20
2011,04,22,11,19,9.10
2011,04,22,11,20,9.00
2011,04,22,11,21,8.90
2011,04,22,11,22,8.90
2011,04,22,11,23,8.90
2011,04,22,11,24,8.90
2011,04,22,11,25,8.90
2011,04,22,11,26,9.00
2011,04,22,11,27,9.00
2011,04,22,11,28,9.00
2011,04,22,11,29,9.00
2011,04,22,11,30,9.10
2011,04,22,11,31,9.10
2011,04,22,11,32,9.10
2011,04,22,11,33,9.20
2011,04,22,11,34,9.20
2011,04,22,11,35,9.30
2011,04,22,11,36,9.40
2011,04,22,11,37,9.40
2011,04,22,11,38,9.40
2011,04,22,11,39,9.40
2011,04,22,11,40,9.40
2011,04,22,11,41,9.40
2011,04,22,11,42,9.40
2011,04,22,11,43,9.50
2011,04,22,11,44,9.50
2011,04,22,11,45,9.40
2011,04,22,11,46,9.30
2011,04,22,11,47,9.40
2011,04,22,11,48,9.40
2011,04,22,11,49,9.40
2011,04,22,11,50,9.50
2011,04,22,11,51,9.50
2011,04,22,11,52,9.60
2011,04,22,11,53,9.60
2011,04,22,11,54,9.60
2011,04,22,11,55,9.70
2011,04,22,11,56,9.70
2011,04,22,11,57,9.70
2011,04,22,11,58,9.70
2011,04,22,11,59,9.60
2011,04,22,12,00,9.60
2011,04,22,12,01,9.60
2011,04,22,12,02,9.60
2011,04,22,12,03,9.60
2011,04,22,12,04,9.60
2011,04,22,12,05,9.60
2011,04,22,12,06,9.60
2011,04,22,12,07,9.60
2011,04,22,12,08,9.50
2011,04,22,12,09,9.40
2011,04,22,12,10,9.40
2011,04,22,12,11,9.40
2011,04,22,12,12,9.40
2011,04,22,12,13,9.40
2011,04,22,12,14,9.50
2011,04,22,12,15,9.50
2011,04,22,12,16,9.60
2011,04,22,12,17,9.70
2011,04,22,12,18,9.70
2011,04,22,12,19,9.80
2011,04,22,12,20,9.80
2011,04,22,12,21,9.80
2011,04,22,12,22,9.80
2011,04,22,12,23,9.90
2011,04,22,12,24,10.00
2011,04,22,12,25,10.00
2011,04,22,12,26,10.00
2011,04,22,12,27,9.90
2011,04,22,12,28,9.80
2011,04,22,12,29,9.70
2011,04,22,12,30,9.60
2011,04,22,12,31,9.60
2011,04,22,12,32,9.60
2011,04,22,12,33,9.70
2011,04,22,12,34,9.80
2011,04,22,12,35,9.90
2011,04,22,12,36,10.00
2011,04,22,12,37,10.00
2011,04,22,12,38,10.00
2011,04,22,12,39,9.90
2011,04,22,12,40,9.90
2011,04,22,12,41,9.90
2011,04,22,12,42,9.90
2011,04,22,12,43,9.90
2011,04,22,12,44,9.90
2011,04,22,12,45,10.00
2011,04,22,12,46,10.10
2011,04,22,12,47,10.00
2011,04,22,12,48,9.90
2011,04,22,12,49,9.80
2011,04,22,12,50,9.80
2011,04,22,12,51,9.80
2011,04,22,12,52,9.80
2011,04,22,12,53,9.90
2011,04,22,12,54,10.00
2011,04,22,12,55,10.00
2011,04,22,12,56,10.10
2011,04,22,12,57,10.00
2011,04,22,12,58,10.10
2011,04,22,12,59,10.10
2011,04,22,13,00,10.10
2011,04,22,13,01,10.10
2011,04,22,13,02,10.00
2011,04,22,13,03,10.00
2011,04,22,13,04,10.00
2011,04,22,13,05,10.10
2011,04,22,13,06,10.20
2011,04,22,13,07,10.30
2011,04,22,13,08,10.30
2011,04,22,13,09,10.30
2011,04,22,13,10,10.30
2011,04,22,13,11,10.30
2011,04,22,13,12,10.30
2011,04,22,13,13,10.30
2011,04,22,13,14,10.30
2011,04,22,13,15,10.40
2011,04,22,13,16,10.40
2011,04,22,13,17,10.40
2011,04,22,13,18,10.40
2011,04,22,13,19,10.30
2011,04,22,13,20,10.30
2011,04,22,13,21,10.20
2011,04,22,13,22,10.20
2011,04,22,13,23,10.10
2011,04,22,13,24,10.00
2011,04,22,13,25,9.90
2011,04,22,13,26,9.90
2011,04,22,13,27,10.00
2011,04,22,13,28,10.10
2011,04,22,13,29,10.30
2011,04,22,13,30,10.40
2011,04,22,13,31,10.40
2011,04,22,13,32,10.40
2011,04,22,13,33,10.40
2011,04,22,13,34,10.30
2011,04,22,13,35,10.30
2011,04,22,13,36,10.20
2011,04,22,13,37,10.20
2011,04,22,13,38,10.20
2011,04,22,13,39,10.20
2011,04,22,13,40,10.20
2011,04,22,13,41,10.20
2011,04,22,13,42,10.20
2011,04,22,13,43,10.20
2011,04,22,13,44,10.20
2011,04,22,13,45,10.20
2011,04,22,13,46,10.20
2011,04,22,13,47,10.10
2011,04,22,13,48,10.10
2011,04,22,13,49,10.00
2011,04,22,13,50,10.00
2011,04,22,13,51,10.10
2011,04,22,13,52,10.20
2011,04,22,13,53,10.30
2011,04,22,13,54,10.30
2011,04,22,13,55,10.30
2011,04,22,13,56,10.40
2011,04,22,13,57,10.50
2011,04,22,13,58,10.60
2011,04,22,13,59,10.60
2011,04,22,14,00,10.60
2011,04,22,14,01,10.70
2011,04,22,14,02,10.80
2011,04,22,14,03,10.80
2011,04,22,14,04,10.70
2011,04,22,14,05,10.80
2011,04,22,14,06,10.70
2011,04,22,14,07,10.60
2011,04,22,14,08,10.60
2011,04,22,14,09,10.60
2011,04,22,14,10,10.70
2011,04,22,14,11,10.80
2011,04,22,14,12,10.90
2011,04,22,14,13,10.90
2011,04,22,14,14,11.00
2011,04,22,14,15,11.10
2011,04,22,14,16,11.20
2011,04,22,14,17,11.20
2011,04,22,14,18,11.10
2011,04,22,14,19,11.10
2011,04,22,14,20,11.10
2011,04,22,14,21,11.10
2011,04,22,14,22,11.20
2011,04,22,14,23,11.30
2011,04,22,14,24,11.30
2011,04,22,14,25,11.40
2011,04,22,14,26,11.50
2011,04,22,14,27,11.50
2011,04,22,14,28,11.60
2011,04,22,14,29,11.60
2011,04,22,14,30,11.70
2011,04,22,14,31,11.70
2011,04,22,14,32,11.80
2011,04,22,14,33,11.90
2011,04,22,14,34,12.00
2011,04,22,14,35,12.00
2011,04,22,14,36,11.90
2011,04,22,14,37,11.90
2011,04,22,14,38,11.80
2011,04,22,14,39,11.70
2011,04,22,14,40,11.60
2011,04,22,14,41,11.40
2011,04,22,14,42,11.30
2011,04,22,14,43,11.10
2011,04,22,14,44,11.00
2011,04,22,14,45,10.90
2011,04,22,14,46,10.80
2011,04,22,14,47,10.80
2011,04,22,14,48,10.80
2011,04,22,14,49,10.70
2011,04,22,14,50,10.70
2011,04,22,14,51,10.70
2011,04,22,14,52,10.70
2011,04,22,14,53,10.60
2011,04,22,14,54,10.60
2011,04,22,14,55,10.60
2011,04,22,14,56,10.60
2011,04,22,14,57,10.60
2011,04,22,14,58,10.60
2011,04,22,14,59,10.60
2011,04,22,15,00,10.60
2011,04,22,15,01,10.60
2011,04,22,15,02,10.50
2011,04,22,15,03,10.50
2011,04,22,15,04,10.40
2011,04,22,15,05,10.40
2011,04,22,15,06,10.40
2011,04,22,15,07,10.40
2011,04,22,15,08,10.40
2011,04,22,15,09,10.40
2011,04,22,15,10,10.40
2011,04,22,15,11,10.40
2011,04,22,15,12,10.40
2011,04,22,15,13,10.40
2011,04,22,15,14,10.40
2011,04,22,15,15,10.40
2011,04,22,15,16,10.50
2011,04,22,15,17,10.60
2011,04,22,15,18,10.70
2011,04,22,15,19,10.80
2011,04,22,15,20,10.90
2011,04,22,15,21,10.90
2011,04,22,15,22,10.90
2011,04,22,15,23,10.90
2011,04,22,15,24,10.90
2011,04,22,15,25,10.90
2011,04,22,15,26,11.00
2011,04,22,15,27,11.10
2011,04,22,15,28,11.10
2011,04,22,15,29,11.00
2011,04,22,15,30,10.90
2011,04,22,15,31,10.80
2011,04,22,15,32,10.80
2011,04,22,15,33,10.80
2011,04,22,15,34,10.90
2011,04,22,15,35,10.90
2011,04,22,15,36,11.00
2011,04,22,15,37,11.10
2011,04,22,15,38,11.10
2011,04,22,15,39,11.20
2011,04,22,15,40,11.20
2011,04,22,15,41,11.10
2011,04,22,15,42,11.20
2011,04,22,15,43,11.20
2011,04,22,15,44,11.20
2011,04,22,15,45,11.30
2011,04,22,15,46,11.30
2011,04,22,15,47,11.40
2011,04,22,15,48,11.40
2011,04,22,15,49,11.50
2011,04,22,15,50,11.60
2011,04,22,15,51,11.60
2011,04,22,15,52,11.60
2011,04,22,15,53,11.70
2011,04,22,15,54,11.80
2011,04,22,15,55,11.90
2011,04,22,15,56,12.00
2011,04,22,15,57,12.10
2011,04,22,15,58,12.10
2011,04,22,15,59,12.20
2011,04,22,16,00,12.20
2011,04,22,16,01,12.20
2011,04,22,16,02,12.20
2011,04,22,16,03,12.20
2011,04,22,16,04,12.10
2011,04,22,16,05,12.10
2011,04,22,16,06,12.10
2011,04,22,16,07,12.10
2011,04,22,16,08,12.10
2011,04,22,16,09,12.10
2011,04,22,16,10,12.00
2011,04,22,16,11,11.80
2011,04,22,16,12,11.70
2011,04,22,16,13,11.70
2011,04,22,16,14,11.70
2011,04,22,16,15,11.60
2011,04,22,16,16,11.60
2011,04,22,16,17,11.50
2011,04,22,16,18,11.40
2011,04,22,16,19,11.30
2011,04,22,16,20,11.30
2011,04,22,16,21,11.30
2011,04,22,16,22,11.30
2011,04,22,16,23,11.30
2011,04,22,16,24,11.30
2011,04,22,16,25,11.30
2011,04,22,16,26,11.30
2011,04,22,16,27,11.40
2011,04,22,16,28,11.50
2011,04,22,16,29,11.60
2011,04,22,16,30,11.60
2011,04,22,16,31,11.70
2011,04,22,16,32,11.70
2011,04,22,16,33,11.80
2011,04,22,16,34,11.80
2011,04,22,16,35,11.80
2011,04,22,16,36,11.80
2011,04,22,16,37,11.80
2011,04,22,16,38,11.90
2011,04,22,16,39,11.80
2011,04,22,16,40,11.80
2011,04,22,16,41,11.80
2011,04,22,16,42,11.70
2011,04,22,16,43,11.70
2011,04,22,16,44,11.70
2011,04,22,16,45,11.70
2011,04,22,16,46,11.70
2011,04,22,16,47,11.60
2011,04,22,16,48,11.60
2011,04,22,16,49,11.60
2011,04,22,16,50,11.50
2011,04,22,16,51,11.40
2011,04,22,16,52,11.40
2011,04,22,16,53,11.40
2011,04,22,16,54,11.40
2011,04,22,16,55,11.40
2011,04,22,16,56,11.50
2011,04,22,16,57,11.60
2011,04,22,16,58,11.60
2011,04,22,16,59,11.60
2011,04,22,17,00,11.70
2011,04,22,17,01,11.70
2011,04,22,17,02,11.70
2011,04,22,17,03,11.70
2011,04,22,17,04,11.70
2011,04,22,17,05,11.70
2011,04,22,17,06,11.60
2011,04,22,17,07,11.70
2011,04,22,17,08,11.70
2011,04,22,17,09,11.60
2011,04,22,17,10,11.60
2011,04,22,17,11,11.60
2011,04,22,17,12,11.50
2011,04,22,17,13,11.50
2011,04,22,17,14,11.40
2011,04,22,17,15,11.40
2011,04,22,17,16,11.50
2011,04,22,17,17,11.50
2011,04,22,17,18,11.50
2011,04,22,17,19,11.60
2011,04,22,17,20,11.60
2011,04,22,17,21,11.60
2011,04,22,17,22,11.50
2011,04,22,17,23,11.50
2011,04,22,17,24,11.40
2011,04,22,17,25,11.40
2011,04,22,17,26,11.40
2011,04,22,17,27,11.40
2011,04,22,17,28,11.40
2011,04,22,17,29,11.40
2011,04,22,17,30,11.40
2011,04,22,17,31,11.30
2011,04,22,17,32,11.30
2011,04,22,17,33,11.30
2011,04,22,17,34,11.30
2011,04,22,17,35,11.30
2011,04,22,17,36,11.30
2011,04,22,17,37,11.30
2011,04,22,17,38,11.30
2011,04,22,17,39,11.30
2011,04,22,17,40,11.30
2011,04,22,17,41,11.30
2011,04,22,17,42,11.30
2011,04,22,17,43,11.30
2011,04,22,17,44,11.30
2011,04,22,17,45,11.30
2011,04,22,17,46,11.30
2011,04,22,17,47,11.30
2011,04,22,17,48,11.30
2011,04,22,17,49,11.30
2011,04,22,17,50,11.30
2011,04,22,17,51,11.30
2011,04,22,17,52,11.20